Torna al catalogo

STARLINK-35798

AttivoComunicazioniVLEO
NORAD 66292·PAYLOAD·🇺🇸 United States

Lanciato Oct 31, 2025 da Vandenberg Space Force Base

Loading…

Prossimi Passaggi (prossime 24 ore)

TLE

AggiornatoSource: CelesTrak SupGP

Epoca: Sep 14, 2026, 21:25 UTC

1 66292C 25247AD  26257.89284722  .00035155  00000+0  10391-2 0  2570
2 66292  53.1599  28.0541 0001191  77.8928 357.3745 15.34358868    18

Traccia STARLINK-35798 in tempo reale con AllMySat

Download on the App Store